Home > Weather > New Salem > Past weeks

Flag for USA Past Weather in New Salem, North Dakota, USA — Yesterday and Last 2 Weeks

Now
62 °F

Overcast.


Feels Like: 62 °F
Forecast: 50 / 70 °F
Wind: 6 mph from Northeast

Location: Bismarck Municipal Airport

Current Time: May 28, 2016 at 11:14:07 AM

Latest Report: May 28, 2016 at 9:52 AM


Visibility: 8 mi

Pressure: 29.88 "Hg (27.63 "Hg at 664m altitude)

Humidity: 78%

Dew Point: 55 °F

Location of New SalemLocation

Past Weather in New Salem — Graph

°F

New Salem Temperature Yesterday

Maximum temperature yesterday: 72 °F (at 4:52 PM)
Minimum temperature yesterday: 47 °F (at 2:52 AM)
Average temperature yesterday: 60 °F

High & Low Weather Summary for the Past Weeks

 TemperatureHumidityPressure
High80 °F (May 22, 6:52 PM)100% (May 27, 2:52 AM)30.37 "Hg (May 27, 2:52 AM)
Low33 °F (May 15, 5:52 AM)20% (May 23, 2:52 PM)29.52 "Hg (May 22, 7:52 PM)
Average59 °F58%29.95 "Hg
* Reported May 13 8:52 AM — May 28 8:52 AM, New Salem, Weather by CustomWeather, © 2016

Note: Actual official high and low records may vary slightly from our data, if they occured in-between our weather recording intervals... More about our weather records

Advertising

New Salem Weather History for the Previous 24 Hours

Scroll right to see more
 ConditionsComfort  
Time TempWeatherWind HumidityBarometerVisibility
8:52 AM
Sat, May 28
59 °FOvercast.8 mph87%29.87 "Hg7 mi
7:52 AM58 °FFog.8 mph90%29.86 "Hg5 mi
6:52 AM57 °FFog.9 mph93%29.86 "Hg4 mi
5:52 AM56 °FFog.10 mph100%29.85 "Hg4 mi
4:55 AM56 °FFog.8 mph100%29.85 "Hg3 mi
4:03 AM51 °FPassing clouds.3 mph96%29.85 "Hg9 mi
3:52 AM50 °FPassing clouds.3 mph96%29.85 "Hg10 mi
2:52 AM55 °FPassing clouds.3 mph87%29.84 "Hg10 mi
1:52 AM56 °FOvercast.No wind81%29.83 "Hg10 mi
12:52 AM55 °FPassing clouds.No wind87%29.84 "Hg10 mi
11:52 PM
Fri, May 27
57 °FClear.7 mph78%29.82 "Hg10 mi
10:52 PM60 °FClear.6 mph72%29.81 "Hg10 mi
9:52 PM62 °FSunny.6 mph70%29.80 "Hg10 mi
8:52 PM65 °FSunny.6 mph61%29.80 "Hg10 mi
7:52 PM67 °FSunny.3 mph55%29.79 "Hg10 mi
6:52 PM69 °FSunny.No wind45%29.78 "Hg10 mi
5:52 PM70 °FScattered clouds.No wind42%29.79 "Hg10 mi
4:52 PM72 °FPartly sunny.No wind40%29.80 "Hg10 mi
3:52 PM68 °FOvercast.No wind49%29.81 "Hg10 mi
2:52 PM68 °FBroken clouds.8 mph47%29.82 "Hg10 mi
1:52 PM70 °FScattered clouds.6 mph46%29.82 "Hg10 mi
12:52 PM69 °FPassing clouds.9 mph51%29.83 "Hg10 mi
11:52 AM68 °FScattered clouds.10 mph55%29.83 "Hg10 mi
Weather by CustomWeather, © 2016

See weather overviewHow to use our weather pages